• In Uzbekistan
  • List of Countries
  • For 7 days
  • Water Temperature
  • Satellite Maps
  • Weather Map
  • Weather Widgets
  • user-avatar
    Login

    Hourly Weather Abenra

    Today, 16 December, Saturday

    Time Temperature Precipitation Wind Pressure Humidity
    00:00 +1°C° 0 mm 4 mps 744 mmHg 85%
    01:00 0°C° 0 mm 4 mps 744 mmHg 84%
    02:00 0°C° 0 mm 4 mps 744 mmHg 82%
    03:00 0°C° 0 mm 4 mps 744 mmHg 81%
    04:00 0°C° 0 mm 4 mps 744 mmHg 80%
    05:00 0°C° 0.1 mm 4 mps 745 mmHg 80%
    06:00 0°C° 0.1 mm 4 mps 745 mmHg 80%
    07:00 +1°C° 0.1 mm 3 mps 745 mmHg 80%
    08:00 +1°C° 0.1 mm 3 mps 746 mmHg 80%
    09:00 +1°C° 0.1 mm 3 mps 746 mmHg 79%
    10:00 +1°C° 0.1 mm 3 mps 747 mmHg 79%
    11:00 +2°C° 0 mm 3 mps 747 mmHg 76%
    12:00 +1°C° 0 mm 4 mps 747 mmHg 74%
    13:00 +3°C° 0 mm 4 mps 748 mmHg 71%
    14:00 +1°C° 0 mm 4 mps 748 mmHg 73%
    15:00 0°C° 0 mm 4 mps 749 mmHg 75%
    16:00 0°C° 0 mm 4 mps 749 mmHg 76%
    17:00 -1°C° 0 mm 4 mps 749 mmHg 77%
    18:00 0°C° 0 mm 3 mps 750 mmHg 78%
    19:00 0°C° 0 mm 3 mps 750 mmHg 79%
    20:00 -1°C° 0 mm 4 mps 751 mmHg 79%
    21:00 -1°C° 0 mm 4 mps 752 mmHg 78%
    22:00 -2°C° 0 mm 4 mps 752 mmHg 78%
    23:00 -2°C° 0 mm 4 mps 753 mmHg 77%

    Tomorrow, 17 December, Sunday

    Time Temperature Precipitation Wind Pressure Humidity
    00:00 -2°C° 0 mm 4 mps 753 mmHg 75%
    01:00 -2°C° 0 mm 5 mps 754 mmHg 74%
    02:00 -2°C° 0 mm 4 mps 754 mmHg 77%
    03:00 -2°C° 0 mm 4 mps 755 mmHg 79%
    04:00 -2°C° 0 mm 4 mps 755 mmHg 81%
    05:00 -2°C° 0 mm 4 mps 756 mmHg 82%
    06:00 -2°C° 0 mm 4 mps 757 mmHg 84%
    07:00 -1°C° 0 mm 3 mps 757 mmHg 85%
    08:00 -1°C° 0 mm 3 mps 758 mmHg 84%
    09:00 +1°C° 0 mm 2 mps 758 mmHg 84%
    10:00 +1°C° 0 mm 2 mps 759 mmHg 83%
    11:00 +1°C° 0 mm 2 mps 759 mmHg 80%
    12:00 +2°C° 0 mm 2 mps 759 mmHg 77%
    13:00 +3°C° 0 mm 2 mps 759 mmHg 74%
    14:00 +2°C° 0 mm 3 mps 759 mmHg 77%
    15:00 +1°C° 0 mm 3 mps 759 mmHg 80%
    16:00 0°C° 0 mm 4 mps 759 mmHg 82%
    17:00 0°C° 0 mm 4 mps 759 mmHg 83%
    18:00 0°C° 0 mm 4 mps 759 mmHg 83%
    19:00 0°C° 0 mm 5 mps 758 mmHg 84%
    20:00 +1°C° 0.2 mm 6 mps 758 mmHg 84%
    21:00 0°C° 0.2 mm 7 mps 757 mmHg 84%
    22:00 +1°C° 0.2 mm 8 mps 756 mmHg 83%
    23:00 +1°C° 1.4 mm 8 mps 755 mmHg 86%

    Day after tomorrow, 18 December, Monday

    Time Temperature Precipitation Wind Pressure Humidity
    00:00 +1°C° 1.4 mm 8 mps 755 mmHg 88%
    01:00 +1°C° 1.4 mm 9 mps 754 mmHg 90%
    02:00 +1°C° 0.5 mm 8 mps 754 mmHg 89%
    03:00 +2°C° 0.5 mm 6 mps 754 mmHg 87%
    04:00 +2°C° 0.5 mm 5 mps 753 mmHg 86%
    05:00 +2°C° 0.1 mm 6 mps 754 mmHg 86%
    06:00 +2°C° 0.1 mm 6 mps 754 mmHg 86%
    07:00 +2°C° 0.1 mm 6 mps 755 mmHg 86%
    08:00 +2°C° 0 mm 6 mps 755 mmHg 86%
    09:00 +3°C° 0 mm 5 mps 756 mmHg 86%
    10:00 +3°C° 0 mm 5 mps 757 mmHg 85%
    11:00 +3°C° 0 mm 5 mps 758 mmHg 85%
    12:00 +3°C° 0 mm 5 mps 758 mmHg 85%
    13:00 +3°C° 0 mm 5 mps 759 mmHg 85%
    14:00 +3°C° 0 mm 5 mps 760 mmHg 86%
    15:00 +3°C° 0 mm 4 mps 760 mmHg 87%
    16:00 +3°C° 0 mm 4 mps 761 mmHg 89%
    17:00 +3°C° 0 mm 4 mps 762 mmHg 89%
    18:00 +1°C° 0 mm 4 mps 762 mmHg 90%
    19:00 +1°C° 0 mm 4 mps 763 mmHg 90%
    20:00 +2°C° 0 mm 3 mps 764 mmHg 91%
    21:00 +2°C° 0 mm 3 mps 764 mmHg 91%
    22:00 +2°C° 0 mm 3 mps 765 mmHg 92%
    23:00 +2°C° 0 mm 3 mps 765 mmHg 92%

    19 December, Tuesday

    Time Temperature Precipitation Wind Pressure Humidity
    00:00 +2°C° 0 mm 3 mps 766 mmHg 91%
    01:00 +3°C° 0 mm 2 mps 766 mmHg 91%
    02:00 +3°C° 0 mm 2 mps 766 mmHg 91%
    03:00 +2°C° 0 mm 2 mps 767 mmHg 92%
    04:00 +2°C° 0 mm 2 mps 767 mmHg 92%
    05:00 +2°C° 0 mm 2 mps 767 mmHg 92%
    06:00 +2°C° 0 mm 2 mps 768 mmHg 92%
    07:00 +2°C° 0 mm 2 mps 768 mmHg 91%
    08:00 +3°C° 0 mm 2 mps 768 mmHg 91%
    09:00 +3°C° 0 mm 2 mps 769 mmHg 90%
    10:00 +3°C° 0 mm 2 mps 769 mmHg 90%
    11:00 +3°C° 0 mm 3 mps 769 mmHg 89%
    12:00 +4°C° 0 mm 3 mps 769 mmHg 88%
    13:00 +5°C° 0 mm 4 mps 769 mmHg 87%
    14:00 +5°C° 0 mm 4 mps 768 mmHg 88%
    15:00 +4°C° 0 mm 4 mps 768 mmHg 89%
    16:00 +3°C° 0 mm 5 mps 768 mmHg 90%
    17:00 +3°C° 0 mm 5 mps 768 mmHg 91%
    18:00 +5°C° 0 mm 5 mps 768 mmHg 92%
    19:00 +5°C° 0 mm 5 mps 768 mmHg 92%
    20:00 +4°C° 0 mm 6 mps 768 mmHg 94%
    21:00 +4°C° 0 mm 6 mps 768 mmHg 95%
    22:00 +5°C° 0 mm 6 mps 767 mmHg 97%
    23:00 +5°C° 0.1 mm 6 mps 767 mmHg 97%

    20 December, Wednesday

    Time Temperature Precipitation Wind Pressure Humidity
    00:00 +5°C° 0.1 mm 6 mps 767 mmHg 96%
    01:00 +7°C° 0.1 mm 6 mps 767 mmHg 96%
    02:00 +7°C° 0 mm 5 mps 767 mmHg 96%
    03:00 +7°C° 0 mm 5 mps 767 mmHg 96%
    04:00 +7°C° 0 mm 5 mps 766 mmHg 96%
    05:00 +7°C° 0 mm 5 mps 766 mmHg 96%
    06:00 +7°C° 0 mm 5 mps 766 mmHg 96%
    07:00 +7°C° 0 mm 5 mps 766 mmHg 96%
    08:00 +7°C° 0 mm 5 mps 767 mmHg 96%
    09:00 +7°C° 0 mm 4 mps 767 mmHg 96%
    10:00 +7°C° 0 mm 4 mps 767 mmHg 96%
    11:00 +8°C° 0 mm 5 mps 767 mmHg 95%
    12:00 +8°C° 0 mm 5 mps 767 mmHg 95%
    13:00 +8°C° 0 mm 5 mps 767 mmHg 94%
    14:00 +7°C° 0 mm 5 mps 767 mmHg 92%
    15:00 +7°C° 0 mm 5 mps 767 mmHg 90%
    16:00 +6°C° 0 mm 5 mps 767 mmHg 88%
    17:00 +6°C° 0 mm 5 mps 767 mmHg 86%
    18:00 +5°C° 0 mm 5 mps 768 mmHg 85%
    19:00 +3°C° 0 mm 5 mps 768 mmHg 84%
    20:00 +4°C° 0 mm 4 mps 768 mmHg 85%
    21:00 +4°C° 0 mm 4 mps 768 mmHg 87%
    22:00 +3°C° 0 mm 3 mps 768 mmHg 89%
    23:00 +3°C° 0 mm 3 mps 768 mmHg 89%

    21 December, Thursday

    Time Temperature Precipitation Wind Pressure Humidity
    00:00 +3°C° 0 mm 3 mps 767 mmHg 89%
    01:00 +3°C° 0 mm 3 mps 767 mmHg 88%
    02:00 +4°C° 0.1 mm 3 mps 766 mmHg 87%
    03:00 +4°C° 0.1 mm 4 mps 766 mmHg 86%
    04:00 +5°C° 0.1 mm 4 mps 765 mmHg 85%
    05:00 +4°C° 0.9 mm 6 mps 764 mmHg 88%
    06:00 +5°C° 0.9 mm 7 mps 763 mmHg 91%
    07:00 +6°C° 0.9 mm 8 mps 762 mmHg 94%
    08:00 +6°C° 0.4 mm 9 mps 762 mmHg 93%
    09:00 +6°C° 0.4 mm 9 mps 761 mmHg 92%
    10:00 +7°C° 0.4 mm 9 mps 761 mmHg 91%
    11:00 +6°C° 0 mm 9 mps 761 mmHg 89%
    12:00 +6°C° 0 mm 9 mps 761 mmHg 86%
    13:00 +6°C° 0 mm 8 mps 761 mmHg 83%
    14:00 +6°C° 0 mm 8 mps 761 mmHg 84%
    15:00 +5°C° 0 mm 8 mps 761 mmHg 85%
    16:00 +5°C° 0 mm 7 mps 761 mmHg 87%
    17:00 +5°C° 0 mm 7 mps 761 mmHg 87%
    18:00 +4°C° 0 mm 7 mps 761 mmHg 88%
    19:00 +4°C° 0 mm 7 mps 761 mmHg 89%
    20:00 +4°C° 0 mm 7 mps 761 mmHg 85%
    21:00 +4°C° 0 mm 6 mps 761 mmHg 82%
    22:00 +4°C° 0 mm 6 mps 761 mmHg 78%
    23:00 +3°C° 0 mm 6 mps 761 mmHg 77%
    Show more